Chicopee, MA

5:22 PM EDT on July 22, 2017 (GMT -0400)
Westover Air Reserve Base / Metropolitan Airport

Weather History for KCEF - April, 2014

Change the Weather History Date:

Tuesday, April 8, 2014

  Actual Average Record
Temperature  
Mean Temperature 54 °F -  
Max Temperature 64 °F 53 °F 73 °F (1999)
Min Temperature 43 °F 33 °F 24 °F (2004)
Degree Days  
Heating Degree Days 11    
Growing Degree Days 4 (Base 50)    
Moisture  
Dew Point 48 °F    
Average Humidity 94    
Maximum Humidity 100    
Minimum Humidity 46    
Precipitation  
Precipitation 0.32 in - - ()
Sea Level Pressure  
Sea Level Pressure 29.51 in    
Wind  
Wind Speed 5 mph (SW)    
Max Wind Speed 24 mph    
Max Gust Speed 36 mph    
Visibility 7 miles    
Events Rain    
Averages and records for this station are not official NWS values.
T = Trace of Precipitation, MM = Missing Value Source: NWS Daily Summary

Daily Weather History Graph

Daily Weather History Graph

Search for Another Location

Airport or City:

Trip Planner

Search our weather history database for the weather conditions in past years. The results will help you decide how hot, cold, wet, or windy it might be!

Date:

Astronomy

Apr. 08, 2014 Rise Set
Actual Time 6:20 AM EDT 7:23 PM EDT
Civil Twilight 5:52 AM EDT 7:52 PM EDT
Nautical Twilight 5:18 AM EDT 8:26 PM EDT
Astronomical Twilight 4:42 AM EDT 9:02 PM EDT
Moon 1:08 PM EDT (4/8) 2:38 AM EDT (4/8)
Length of Visible Light 14h 00m
Length of Day
13h 02m
Waxing Gibbous, 62% of the Moon is Illuminated
Apr 8
Waxing Gibbous
Apr 15
Full
Apr 22
Last Quarter
Apr 29
New
May 6
First Quarter

Hourly Weather History & Observations

Time (EDT) Temp. Windchill Dew Point Humidity Pressure Visibility Wind Dir Wind Speed Gust Speed Precip Events Conditions
12:14 AM 44.6 °F 42.2 °F 44.6 °F 100% 29.81 in 10.0 mi Variable 4.6 mph - N/A   Overcast
12:24 AM 44.6 °F 43.1 °F 44.6 °F 100% 29.81 in 10.0 mi Variable 3.5 mph - N/A Rain Light Rain
12:33 AM 44.6 °F - 44.6 °F 100% 29.79 in 10.0 mi Variable 2.3 mph - N/A Rain Light Rain
12:50 AM 44.6 °F 42.2 °F 44.6 °F 100% 29.77 in 5.0 mi Variable 4.6 mph - N/A   Light Drizzle
12:58 AM 45.1 °F - 45.0 °F 99% 29.78 in 7.0 mi East 2.3 mph - 0.01 in   Light Drizzle
12:59 AM 44.6 °F - 44.6 °F 100% 29.76 in 7.0 mi Variable 2.3 mph - N/A   Overcast
1:09 AM 44.6 °F 42.2 °F 44.6 °F 100% 29.74 in 7.0 mi ENE 4.6 mph - N/A   Light Drizzle
1:41 AM 46.4 °F - 44.6 °F 93% 29.72 in 8.0 mi Variable 2.3 mph - N/A   Overcast
1:47 AM 46.4 °F 43.5 °F 44.6 °F 93% 29.69 in 7.0 mi ENE 5.8 mph - N/A Rain Light Rain
1:58 AM 45.9 °F - 45.5 °F 99% 29.71 in 6.0 mi Variable 2.3 mph - 0.02 in   Light Drizzle
2:02 AM 46.4 °F 42.9 °F 46.4 °F 100% 29.67 in 7.0 mi NE 6.9 mph - N/A   Overcast
2:05 AM 46.4 °F 43.5 °F 46.4 °F 100% 29.67 in 7.0 mi ENE 5.8 mph - N/A   Overcast
2:14 AM 46.4 °F 44.3 °F 46.4 °F 100% 29.66 in 5.0 mi ENE 4.6 mph - N/A   Light Drizzle
2:54 AM 46.4 °F - 46.4 °F 100% 29.62 in 7.0 mi Variable 1.2 mph - N/A   Light Drizzle
2:58 AM 46.8 °F - 46.6 °F 99% 29.64 in 6.0 mi ENE 2.3 mph - 0.03 in Rain Light Rain
3:08 AM 46.4 °F - 46.4 °F 100% 29.61 in 4.0 mi Variable 2.3 mph - N/A   Light Drizzle
3:09 AM 46.4 °F - 46.4 °F 100% 29.61 in 5.0 mi Variable 2.3 mph - N/A   Light Drizzle
3:18 AM 46.4 °F - 46.4 °F 100% 29.60 in 7.0 mi East 2.3 mph - N/A   Light Drizzle
3:19 AM 46.4 °F - 46.4 °F 100% 29.60 in 7.0 mi ENE 2.3 mph - N/A   Overcast
3:21 AM 48.2 °F - 48.2 °F 100% 29.59 in 8.0 mi ENE 3.5 mph - N/A   Light Drizzle
3:23 AM 48.2 °F - 48.2 °F 100% 29.59 in 9.0 mi ENE 2.3 mph - N/A   Light Drizzle
3:29 AM 48.2 °F - 48.2 °F 100% 29.58 in 7.0 mi ENE 3.5 mph - N/A   Light Drizzle
3:41 AM 48.2 °F - 48.2 °F 100% 29.57 in 8.0 mi NNE 2.3 mph - N/A   Light Drizzle
3:48 AM 48.2 °F - 48.2 °F 100% 29.57 in 9.0 mi ENE 2.3 mph - N/A Rain Light Rain
3:58 AM 47.3 °F - 47.3 °F 100% 29.58 in 9.0 mi Variable 1.2 mph - 0.02 in Rain Light Rain
4:12 AM 48.2 °F - 48.2 °F 100% 29.54 in 8.0 mi NE 3.5 mph - N/A Rain Light Rain
4:31 AM 48.2 °F - 48.2 °F 100% 29.55 in 4.0 mi NNW 2.3 mph - N/A Rain Light Rain
4:51 AM 46.4 °F 44.3 °F 46.4 °F 100% 29.53 in 5.0 mi NW 4.6 mph - N/A Rain Light Rain
4:58 AM 47.1 °F - 47.1 °F 100% 29.55 in 6.0 mi NW 3.5 mph - 0.12 in Rain Light Rain
5:37 AM 46.4 °F 44.3 °F 46.4 °F 100% 29.52 in 10.0 mi NW 4.6 mph - N/A   Overcast
5:40 AM 46.4 °F 44.3 °F 46.4 °F 100% 29.52 in 10.0 mi WNW 4.6 mph - N/A Rain Light Rain
5:58 AM 45.9 °F 43.6 °F 45.9 °F 100% 29.53 in 8.0 mi NNW 4.6 mph - 0.03 in Rain Light Rain
6:16 AM 46.4 °F 43.5 °F 46.4 °F 100% 29.50 in 10.0 mi North 5.8 mph - N/A   Light Drizzle
6:23 AM 46.4 °F - 46.4 °F 100% 29.51 in 10.0 mi Calm Calm - N/A   Light Drizzle
6:25 AM 46.4 °F - 46.4 °F 100% 29.52 in 10.0 mi SW 1.2 mph - N/A   Light Drizzle
6:27 AM 46.4 °F - 46.4 °F 100% 29.52 in 10.0 mi WSW 2.3 mph - N/A   Light Drizzle
6:29 AM 46.4 °F 45.2 °F 46.4 °F 100% 29.52 in 10.0 mi SW 3.5 mph - N/A   Light Drizzle
6:34 AM 46.4 °F - 46.4 °F 100% 29.52 in 10.0 mi West 2.3 mph - N/A Rain Light Rain
6:41 AM 46.4 °F 44.3 °F 46.4 °F 100% 29.48 in 3.0 mi NNE 4.6 mph - N/A Rain Rain
6:43 AM 46.4 °F 45.2 °F 46.4 °F 100% 29.48 in 2.5 mi ENE 3.5 mph - N/A Rain Rain
6:45 AM 46.4 °F 44.3 °F 46.4 °F 100% 29.48 in 2.5 mi ENE 4.6 mph - N/A Rain Light Rain
6:46 AM 46.4 °F 44.3 °F 46.4 °F 100% 29.48 in 2.0 mi ENE 4.6 mph - N/A Rain Light Rain
6:50 AM 46.4 °F 45.2 °F 46.4 °F 100% 29.47 in 2.5 mi East 3.5 mph - N/A Rain Light Rain
6:52 AM 46.4 °F - 46.4 °F 100% 29.47 in 3.0 mi NE 1.2 mph - N/A Rain Light Rain
6:58 AM 45.9 °F - 45.9 °F 100% 29.49 in 5.0 mi SE 2.3 mph - 0.05 in   Light Drizzle
6:59 AM 46.4 °F - 46.4 °F 100% 29.47 in 6.0 mi ESE 2.3 mph - N/A   Overcast
7:02 AM 46.4 °F - 46.4 °F 100% 29.47 in 8.0 mi Variable 1.2 mph - N/A   Overcast
7:24 AM 46.4 °F 45.2 °F 46.4 °F 100% 29.49 in 10.0 mi SW 3.5 mph - N/A   Overcast
7:38 AM 46.4 °F 44.3 °F 46.4 °F 100% 29.50 in 9.0 mi SW 4.6 mph - N/A Rain Light Rain
7:50 AM 46.4 °F 45.2 °F 46.4 °F 100% 29.49 in 2.5 mi WSW 3.5 mph - N/A Rain Rain
7:58 AM 46.6 °F - 46.6 °F 100% 29.51 in 1.2 mi SSW 2.3 mph - N/A Rain Rain
8:32 AM 46.4 °F 45.2 °F 46.4 °F 100% 29.44 in 1.2 mi NNW 3.5 mph - N/A Rain Light Rain
8:40 AM 46.4 °F - 46.4 °F 100% 29.43 in 1.2 mi Calm Calm - N/A   Overcast
8:58 AM 47.3 °F - 47.3 °F 100% 29.45 in 1.2 mi West 1.2 mph - 0.03 in   Overcast
9:58 AM 48.4 °F - 48.4 °F 100% 29.44 in 1.2 mi WSW 2.3 mph - N/A   Overcast
10:03 AM 48.2 °F - 48.2 °F 100% 29.41 in 1.0 mi West 1.2 mph - N/A   Overcast
10:35 AM 50.0 °F - 50.0 °F 100% 29.41 in 1.5 mi SW 3.5 mph - N/A   Overcast
10:55 AM 50.0 °F - 50.0 °F 100% 29.40 in 0.8 mi SSW 4.6 mph - N/A   Light Drizzle
10:58 AM 50.4 °F - 50.4 °F 100% 29.42 in 0.8 mi SW 4.6 mph - N/A   Light Drizzle
11:09 AM 51.8 °F - 51.8 °F 100% 29.40 in 2.0 mi SW 4.6 mph - N/A   Overcast
11:57 AM 53.6 °F - 53.6 °F 100% 29.40 in 2.0 mi SSW 10.4 mph - N/A   Overcast
12:15 PM 55.4 °F - 55.4 °F 100% 29.37 in 2.0 mi South 10.4 mph - N/A   Overcast
12:26 PM 55.4 °F - 55.4 °F 100% 29.37 in 10.0 mi South 12.7 mph - N/A   Overcast
12:42 PM 55.4 °F - 55.4 °F 100% 29.36 in 10.0 mi South 13.8 mph - N/A   Overcast
12:53 PM 57.2 °F - 57.2 °F 100% 29.36 in 10.0 mi South 13.8 mph - N/A   Overcast
12:58 PM 57.4 °F - 57.2 °F 99% 29.37 in 10.0 mi SSW 10.4 mph - N/A   Overcast
1:07 PM 59.0 °F - 57.2 °F 94% 29.35 in 10.0 mi SSW 15.0 mph 19.6 mph N/A   Overcast
1:16 PM 59.0 °F - 59.0 °F 100% 29.35 in 10.0 mi South 13.8 mph 19.6 mph N/A   Mostly Cloudy
1:22 PM 60.8 °F - 59.0 °F 94% 29.34 in 10.0 mi SSW 12.7 mph - N/A   Mostly Cloudy
1:33 PM 60.8 °F - 60.8 °F 100% 29.33 in 10.0 mi South 15.0 mph - N/A   Mostly Cloudy
1:34 PM 60.8 °F - 60.8 °F 100% 29.33 in 10.0 mi South 15.0 mph - N/A   Mostly Cloudy
1:37 PM 62.6 °F - 59.0 °F 88% 29.33 in 10.0 mi South 11.5 mph - N/A   Mostly Cloudy
1:58 PM 62.8 °F - 57.6 °F 83% 29.35 in 10.0 mi SSW 12.7 mph 19.6 mph N/A   Scattered Clouds
2:19 PM 62.6 °F - 57.2 °F 82% 29.32 in 10.0 mi South 16.1 mph - N/A   Mostly Cloudy
2:23 PM 64.4 °F - 55.4 °F 73% 29.32 in 10.0 mi South 18.4 mph - N/A   Mostly Cloudy
2:58 PM 64.2 °F - 53.6 °F 68% 29.32 in 10.0 mi SSW 18.4 mph 26.5 mph N/A   Mostly Cloudy
3:58 PM 63.9 °F - 51.8 °F 65% 29.33 in 10.0 mi WSW 16.1 mph 21.9 mph N/A   Mostly Cloudy
4:58 PM 63.0 °F - 42.1 °F 46% 29.35 in 10.0 mi West 24.2 mph 35.7 mph N/A   Mostly Cloudy
5:58 PM 62.1 °F - 41.7 °F 47% 29.37 in 10.0 mi West 20.7 mph 29.9 mph 0.01 in   Mostly Cloudy
6:15 PM 60.8 °F - 41.0 °F 48% 29.38 in 10.0 mi WNW 23.0 mph 29.9 mph N/A   Scattered Clouds
6:58 PM 54.0 °F - 38.7 °F 56% 29.45 in 10.0 mi WNW 15.0 mph 25.3 mph N/A   Overcast
7:58 PM 49.5 °F - 38.5 °F 66% 29.50 in 10.0 mi WNW 17.3 mph - N/A   Overcast
8:58 PM 47.8 °F - 36.5 °F 65% 29.55 in 10.0 mi WNW 16.1 mph - N/A   Clear
9:58 PM 46.0 °F 39.6 °F 34.3 °F 64% 29.58 in 10.0 mi WNW 15.0 mph 26.5 mph N/A   Scattered Clouds
10:58 PM 44.8 °F 36.9 °F 34.2 °F 66% 29.57 in 10.0 mi WNW 19.6 mph 29.9 mph N/A   Partly Cloudy
11:58 PM 43.2 °F 37.4 °F 35.1 °F 73% 29.58 in 10.0 mi WNW 10.4 mph - N/A   Clear